This is the latest recevied weather packets stored in our database for station/object IR9AK-10. If no packets are shown the sender has not sent any weather packets the latest 10 day(s).
| Time | Temp. | Humidity | Pressure | Rain* | Wind** | Luminosity | Snow |
|---|---|---|---|---|---|---|---|
| 1777982488 | 21.67° C | 55% | 1061.7 hPa | - | - | - | - |
| 1777981888 | 22.22° C | 55% | 1061.7 hPa | - | - | - | - |
| 1777981290 | 22.22° C | 51% | 1061.6 hPa | - | - | - | - |
| 1777980690 | 22.22° C | 51% | 1061.7 hPa | - | - | - | - |
| 1777980091 | 22.22° C | 51% | 1061.8 hPa | - | - | - | - |
| 1777979492 | 22.22° C | 54% | 1061.7 hPa | - | - | - | - |
| 1777978893 | 22.22° C | 55% | 1061.9 hPa | - | - | - | - |
| 1777978294 | 22.22° C | 54% | 1061.9 hPa | - | - | - | - |
| 1777977695 | 21.67° C | 55% | 1061.9 hPa | - | - | - | - |
| 1777977095 | 21.67° C | 55% | 1062 hPa | - | - | - | - |
| 1777976497 | 21.67° C | 58% | 1062.1 hPa | - | - | - | - |
| 1777975898 | 22.22° C | 55% | 1062.1 hPa | - | - | - | - |
| 1777975299 | 22.22° C | 54% | 1062.2 hPa | - | - | - | - |
| 1777974700 | 22.22° C | 51% | 1062.1 hPa | - | - | - | - |
| 1777974100 | 22.22° C | 54% | 1062.2 hPa | - | - | - | - |
| 1777973500 | 22.78° C | 53% | 1062.3 hPa | - | - | - | - |
| 1777972901 | 22.78° C | 50% | 1062.3 hPa | - | - | - | - |
| 1777972302 | 22.22° C | 52% | 1062.2 hPa | - | - | - | - |
| 1777971702 | 22.22° C | 58% | 1062.4 hPa | - | - | - | - |
| 1777971103 | 22.22° C | 58% | 1062.3 hPa | - | - | - | - |
| 1777970504 | 22.22° C | 58% | 1062.3 hPa | - | - | - | - |
| 1777969905 | 22.22° C | 56% | 1062.2 hPa | - | - | - | - |
| 1777969307 | 22.22° C | 56% | 1062.3 hPa | - | - | - | - |
| 1777968708 | 21.67° C | 58% | 1062.3 hPa | - | - | - | - |
| 1777968109 | 21.11° C | 59% | 1062.2 hPa | - | - | - | - |
* Rain since midnight (hover to see other rain measurements)
** Current wind speed in m/s (hover to see current wind gust speed)